Weather in Hokitika

New Zealand     42°42′58″S   170°57′59″E
В апреле 2022 года жителям России запретили посещать сайт meteo.paraplan.net по решению Генеральной прокуратуры. Аудитория сайта уменьшилась в 10 раз. Владельцы сайта не видят смысла в поддержке погодного сервера в таких условиях. Сайт будет закрыт в октябре.
temp.,
°C
wind,
m/s
gust,
m/s
humid.,
%
clouds,
%
prec.,
mm/h
press.,
hPa
HPBL,
m
30 september, fri
fri3001:00+12ese1397100 5.3 1016151
04:00+9se4790100 3.7 1016292
07:00+8se3786100 4.5 1017254
10:00+8se3883100 0.7 1018372
13:00+9ese3777100 1.2 1019450
16:00+9ese3671100 0.4 1019458
19:00+8e3474100 0.4 1021184
22:00+7ese257314 0.0 1021175
1 october, sat
sat101:00+5se357698 0.0 1020139
04:00+5se2375100 0.0 1020103
07:00+5ese2275100 0.0 101880
10:00+10ese125464 0.0 1018307
13:00+13w32511 0.0 1016653
16:00+13w335782 0.0 1013468
19:00+11sw2272100 0.0 101273
22:00+8se2479100 0.0 101391
2 october, sun
sun201:00+7ese2476100 0.0 101290
04:00+7se237899 0.0 101178
07:00+7se2378100 0.0 101074
10:00+13ese125846 0.0 1010347
13:00+15w325751 0.0 1008592
16:00+15wsw3353100 0.0 1006403
19:00+12sw2268100 0.0 100653
22:00+10se1177100 0.0 100637
3 october, mon
mon301:00+9ese117965 0.0 100537
04:00+8sse118192 0.0 100436
07:00+7se1185100 0.0 100339
10:00+12nne1170100 0.0 1003328
13:00+14nnw336585 0.0 1002718
16:00+14nnw33655 0.0 1001507
19:00+12wsw237692 0.0 1003105
22:00+10se22790 0.0 100740
4 october, tue
tue401:00+8e22725 0.0 100960
04:00+8e357669 0.0 1011153
07:00+10ne2479100 0.1 1012389
10:00+12ne577598 0.1 1013996
13:00+14ne127341 0.3 1012615
16:00+13wsw786216 0.4 10121250
19:00+11wsw587159 0.6 10121053
22:00+9wsw3678100 0.5 1011516